Location: ??????
(30.0081°N, 31.2109°E)
Time: 07:37:06
(UTC+00:00)

Cosmos 2341 Rocket - Pass Details

Date: 03 March 2021
Orbit: 968 x 1005 km, 82.9° (Epoch: 15 April)

Event Time Altitude Azimuth Distance (km) Brightness Sun altitude
Rises 16:39:16 0° 168° (SSE) 3,704 6.9 -10.2°
Reaches altitude 10° 16:41:53 10° 162° (SSE) 2,754 6.2 -10.8°
Maximum altitude 16:47:52 47° 91° (E) 1,296 4.2 -12.1°
Drops below altitude 10° 16:53:50 10° 19° (NNE) 2,743 6.2 -13.4°
Sets 16:56:26 0° 14° (NNE) 3,689 6.9 -14.0°
